Weather History for Juneau, WI

Change the Weather History Date:

Saturday, April 6, 2013

  Actual Average Record
Temperature  
Mean Temperature 44 °F -  
Max Temperature 57 °F 49 °F 80 °F (1991)
Min Temperature 32 °F 32 °F 12 °F (1979)
Degree Days  
Heating Degree Days 20    
Moisture  
Dew Point 31 °F    
Average Humidity 60    
Maximum Humidity 87    
Minimum Humidity 38    
Precipitation  
Precipitation 0.04 in - - ()
Sea Level Pressure  
Sea Level Pressure 29.80 in    
Wind  
Wind Speed 14 mph (SE)    
Max Wind Speed 25 mph    
Max Gust Speed 33 mph    
Visibility 10 miles    
Events Rain    
Averages and records for this station are not official NWS values.
T = Trace of Precipitation, MM = Missing Value Source: NWS Daily Summary

Daily Weather History Graph

Daily Weather History Graph

Search for Another Location

Airport:

Trip Planner

Search our weather history database for the weather conditions in past years. The results will help you decide how hot, cold, wet, or windy it might be!

Date:

Astronomy

Apr. 06, 2013 Rise Set
Actual Time 6:27 AM CDT 7:27 PM CDT
Civil Twilight 5:58 AM CDT 7:56 PM CDT
Nautical Twilight 5:23 AM CDT 8:31 PM CDT
Astronomical Twilight 4:47 AM CDT 9:08 PM CDT
Moon 4:17 AM CDT (4/6) 3:50 PM CDT (4/6)
Length of Visible Light 13h 58m
Length of Day
13h 00m
Waning Crescent, 15% of the Moon is Illuminated
Apr 6
Waning Crescent
Apr 10
New
Apr 18
First Quarter
Apr 25
Full
May 2
Last Quarter

Hourly Weather History & Observations

Time (CDT) Temp. Windchill Dew Point Humidity Pressure Visibility Wind Dir Wind Speed Gust Speed Precip Events Conditions
12:15 AM 33.8 °F 25.8 °F 15.8 °F 48% 30.15 in 10.0 mi East 10.4 mph - N/A   Overcast
12:35 AM 33.8 °F 25.3 °F 15.8 °F 48% 30.14 in 10.0 mi East 11.5 mph - N/A   Overcast
12:55 AM 33.8 °F 26.4 °F 14.0 °F 44% 30.14 in 10.0 mi East 9.2 mph - N/A   Overcast
1:15 AM 33.8 °F 24.8 °F 14.0 °F 44% 30.13 in 10.0 mi East 12.7 mph - N/A   Overcast
1:35 AM 33.8 °F 24.3 °F 17.6 °F 52% 30.12 in 10.0 mi East 13.8 mph 19.6 mph N/A   Overcast
1:55 AM 32.0 °F 22.1 °F 19.4 °F 60% 30.10 in 10.0 mi East 13.8 mph - N/A   Overcast
2:15 AM 32.0 °F 21.6 °F 19.4 °F 60% 30.08 in 10.0 mi East 15.0 mph 19.6 mph N/A   Overcast
2:35 AM 32.0 °F 23.0 °F 21.2 °F 64% 30.08 in 10.0 mi East 11.5 mph - N/A   Overcast
2:55 AM 32.0 °F 20.5 °F 21.2 °F 64% 30.07 in 10.0 mi East 18.4 mph 21.9 mph N/A   Overcast
3:15 AM 32.0 °F 22.5 °F 23.0 °F 69% 30.07 in 10.0 mi East 12.7 mph - N/A   Overcast
3:35 AM 32.0 °F 21.6 °F 23.0 °F 69% 30.04 in 10.0 mi East 15.0 mph - N/A   Overcast
3:55 AM 33.8 °F 23.2 °F 23.0 °F 65% 30.04 in 10.0 mi ESE 17.3 mph - N/A   Overcast
4:15 AM 33.8 °F 25.3 °F 23.0 °F 65% 30.05 in 10.0 mi East 11.5 mph - N/A   Overcast
4:35 AM 33.8 °F 24.8 °F 23.0 °F 65% 30.04 in 10.0 mi ESE 12.7 mph - N/A   Overcast
4:55 AM 33.8 °F 23.5 °F 23.0 °F 65% 30.03 in 10.0 mi ESE 16.1 mph 21.9 mph N/A   Overcast
5:15 AM 33.8 °F 23.9 °F 23.0 °F 65% 30.02 in 10.0 mi ESE 15.0 mph - N/A   Overcast
5:35 AM 33.8 °F 24.3 °F 23.0 °F 65% 30.02 in 10.0 mi ESE 13.8 mph - N/A   Overcast
5:55 AM 33.8 °F 23.9 °F 23.0 °F 65% 30.01 in 10.0 mi ESE 15.0 mph - N/A   Overcast
6:15 AM 33.8 °F 23.9 °F 23.0 °F 65% 30.00 in 10.0 mi ESE 15.0 mph 20.7 mph N/A   Overcast
6:35 AM 33.8 °F 23.5 °F 23.0 °F 65% 29.98 in 10.0 mi ESE 16.1 mph 20.7 mph N/A   Overcast
7:15 AM 35.6 °F 25.2 °F 23.0 °F 60% 29.96 in 10.0 mi SE 18.4 mph 24.2 mph N/A   Overcast
7:35 AM 35.6 °F 24.8 °F 23.0 °F 60% 29.95 in 10.0 mi SE 19.6 mph - N/A   Scattered Clouds
7:55 AM 35.6 °F 25.2 °F 24.8 °F 65% 29.94 in 10.0 mi ESE 18.4 mph - N/A   Scattered Clouds
8:15 AM 37.4 °F 27.8 °F 24.8 °F 60% 29.94 in 10.0 mi SE 17.3 mph 20.7 mph N/A   Scattered Clouds
8:35 AM 37.4 °F 28.5 °F 23.0 °F 56% 29.92 in 10.0 mi SE 15.0 mph 23.0 mph N/A   Mostly Cloudy
8:55 AM 39.2 °F 29.8 °F 23.0 °F 52% 29.92 in 10.0 mi SE 18.4 mph - N/A   Scattered Clouds
9:15 AM 41.0 °F 33.5 °F 23.0 °F 49% 29.90 in 10.0 mi SE 13.8 mph - N/A   Clear
9:35 AM 41.0 °F 31.1 °F 23.0 °F 49% 29.88 in 10.0 mi SE 23.0 mph 27.6 mph N/A   Mostly Cloudy
9:55 AM 41.0 °F 32.8 °F 26.6 °F 57% 29.87 in 10.0 mi SE 16.1 mph 20.7 mph N/A Rain Light Rain
10:15 AM 41.0 °F 34.3 °F 28.4 °F 61% 29.88 in 10.0 mi SSE 11.5 mph 21.9 mph N/A Rain Rain
10:35 AM 41.0 °F 33.5 °F 30.2 °F 65% 29.87 in 10.0 mi SE 13.8 mph - N/A Rain Light Rain
10:55 AM 41.0 °F 32.2 °F 30.2 °F 65% 29.84 in 10.0 mi ESE 18.4 mph - N/A Rain Light Rain
11:15 AM 41.0 °F 32.8 °F 30.2 °F 65% 29.83 in 10.0 mi SE 16.1 mph - N/A   Mostly Cloudy
11:35 AM 42.8 °F 34.0 °F 30.2 °F 61% 29.79 in 10.0 mi ESE 20.7 mph 24.2 mph N/A   Mostly Cloudy
11:55 AM 42.8 °F 35.1 °F 30.2 °F 61% 29.78 in 10.0 mi SE 16.1 mph 21.9 mph N/A   Scattered Clouds
12:15 PM 44.6 °F 37.4 °F 30.2 °F 57% 29.76 in 10.0 mi SE 16.1 mph 23.0 mph N/A   Scattered Clouds
12:35 PM 46.4 °F 39.2 °F 32.0 °F 57% 29.75 in 10.0 mi SE 18.4 mph - N/A   Scattered Clouds
12:55 PM 50.0 °F - 32.0 °F 50% 29.73 in 10.0 mi SSE 17.3 mph - N/A   Clear
1:15 PM 53.6 °F - 32.0 °F 44% 29.73 in 10.0 mi SSE 17.3 mph 21.9 mph N/A   Clear
1:35 PM 55.4 °F - 30.2 °F 38% 29.72 in 10.0 mi South 24.2 mph 28.8 mph N/A   Clear
1:55 PM 55.4 °F - 30.2 °F 38% 29.72 in 10.0 mi South 25.3 mph 33.4 mph N/A   Clear
2:15 PM 57.2 °F - 32.0 °F 38% 29.70 in 10.0 mi South 23.0 mph 29.9 mph N/A   Scattered Clouds
2:35 PM 57.2 °F - 32.0 °F 38% 29.69 in 10.0 mi South 21.9 mph 28.8 mph N/A   Scattered Clouds
2:55 PM 57.2 °F - 32.0 °F 38% 29.66 in 10.0 mi SSE 18.4 mph 25.3 mph N/A   Mostly Cloudy
3:15 PM 55.4 °F - 32.0 °F 41% 29.65 in 10.0 mi SSE 15.0 mph - N/A Rain Light Rain
3:35 PM 55.4 °F - 33.8 °F 44% 29.64 in 10.0 mi SSE 15.0 mph - N/A   Light Drizzle
3:55 PM 55.4 °F - 35.6 °F 47% 29.61 in 10.0 mi SE 17.3 mph 24.2 mph N/A Rain Rain
4:15 PM 53.6 °F - 37.4 °F 54% 29.62 in 10.0 mi SSE 15.0 mph - N/A   Mostly Cloudy
4:35 PM 55.4 °F - 37.4 °F 51% 29.61 in 10.0 mi SSE 10.4 mph - N/A   Overcast
4:55 PM 55.4 °F - 37.4 °F 51% 29.60 in 10.0 mi SSE 9.2 mph - N/A   Overcast
5:15 PM 55.4 °F - 37.4 °F 51% 29.59 in 10.0 mi SSE 9.2 mph - N/A   Overcast
5:35 PM 53.6 °F - 37.4 °F 54% 29.58 in 10.0 mi SE 10.4 mph - N/A   Overcast
5:55 PM 53.6 °F - 37.4 °F 54% 29.57 in 10.0 mi SSE 10.4 mph - N/A   Overcast
6:15 PM 55.4 °F - 37.4 °F 51% 29.56 in 10.0 mi SSE 10.4 mph - N/A   Overcast
6:35 PM 55.4 °F - 35.6 °F 47% 29.56 in 10.0 mi South 10.4 mph - N/A   Overcast
6:55 PM 55.4 °F - 35.6 °F 47% 29.58 in 10.0 mi SSW 17.3 mph 28.8 mph N/A Rain Rain
7:15 PM 53.6 °F - 41.0 °F 62% 29.59 in 5.0 mi SSW 21.9 mph 29.9 mph N/A   Heavy Drizzle
7:35 PM 51.8 °F - 44.6 °F 76% 29.59 in 10.0 mi South 17.3 mph - 0.02 in Rain Rain
7:55 PM 51.8 °F - 44.6 °F 76% 29.58 in 10.0 mi South 17.3 mph 25.3 mph 0.03 in Rain Light Rain
8:15 PM 51.8 °F - 44.6 °F 76% 29.57 in 10.0 mi South 16.1 mph - N/A   Overcast
8:35 PM 51.8 °F - 44.6 °F 76% 29.56 in 10.0 mi South 16.1 mph - N/A   Overcast
8:55 PM 51.8 °F - 44.6 °F 76% 29.55 in 10.0 mi South 13.8 mph - N/A   Overcast
9:15 PM 50.0 °F - 44.6 °F 82% 29.55 in 10.0 mi South 12.7 mph - N/A   Overcast
9:35 PM 50.0 °F - 44.6 °F 82% 29.55 in 10.0 mi South 11.5 mph - N/A   Overcast
9:55 PM 50.0 °F - 44.6 °F 82% 29.55 in 10.0 mi South 12.7 mph - N/A   Overcast
10:15 PM 50.0 °F - 44.6 °F 82% 29.55 in 10.0 mi South 11.5 mph - N/A   Overcast
10:35 PM 50.0 °F - 44.6 °F 82% 29.55 in 7.0 mi SSW 15.0 mph 20.7 mph N/A Rain Light Rain
10:55 PM 50.0 °F - 46.4 °F 87% 29.54 in 10.0 mi SSW 12.7 mph - 0.01 in Rain Rain
11:15 PM 50.0 °F - 46.4 °F 87% 29.54 in 10.0 mi SW 11.5 mph - N/A   Overcast
11:35 PM 50.0 °F - 46.4 °F 87% 29.55 in 10.0 mi SW 11.5 mph - N/A   Overcast
11:55 PM 50.0 °F - 46.4 °F 87% 29.55 in 10.0 mi WSW 12.7 mph - N/A   Overcast